Temperature
28 25 24 25 26 26 27 27 27 27 28 27 26 25 25 25 25 24 24 24 23 23 24 23 23 22 22 22 21 21 21 20 20 20 20 19 19 19 19 19 19 19 19 19
24 24 26 27 27 28 28 27 27 28 28 27 25 25 25 25 25 25 24 24 24 24 23 23 23 22 22 22 22 21 21 21 21 20 20 20 19 19 19 19 19 19 19 19
25 26 27 28 28 28 28 27 27 27 28 27 26 25 24 25 25 25 25 25 24 24 24 23 23 23 22 22 22 22 21 21 21 21 20 19 19 19 19 19 19 19 19 19
25 27 28 28 28 28 27 28 28 28 26 25 25 23 23 23 24 24 25 24 24 24 24 24 23 23 23 23 22 22 22 21 21 20 20 20 20 19 19 19 19 19 19 19
25 27 28 28 29 29 28 29 29 28 26 24 24 23 22 23 23 24 24 25 25 24 24 24 24 24 23 23 22 22 22 21 21 20 20 20 20 19 19 19 19 19 19 18
25 27 28 28 29 29 29 27 26 23 22 23 24 24 23 22 24 24 25 25 25 25 24 24 24 24 23 23 22 22 22 21 21 20 20 20 20 19 19 19 19 19 19 18
26 27 28 29 29 28 27 24 23 23 22 22 23 24 23 24 25 25 25 25 25 25 25 24 24 24 23 23 23 22 22 21 21 20 20 20 19 19 19 19 19 19 19 18
24 24 26 28 28 27 26 23 22 23 23 22 24 24 24 25 26 26 26 26 26 25 25 25 25 24 24 23 23 22 22 21 21 20 20 20 19 19 19 19 19 19 18 18
23 23 27 28 29 28 27 24 22 21 22 23 23 24 25 25 25 25 25 25 25 25 25 25 25 24 24 23 23 23 22 22 21 21 20 20 19 19 19 19 18 18 18 18
23 24 26 27 28 28 27 25 21 21 22 22 23 24 23 24 24 24 24 25 25 25 25 25 25 25 24 24 23 23 22 22 21 21 20 20 19 19 19 19 18 18 18 18
24 23 24 25 26 26 27 26 22 19 20 21 22 23 24 24 24 24 24 25 25 25 25 25 25 25 24 24 23 22 22 21 21 20 20 20 19 19 19 18 18 18 18 18
22 20 21 23 25 26 26 25 22 22 21 20 21 22 25 24 24 24 25 25 25 25 25 25 25 24 24 23 23 22 22 21 21 20 20 19 19 19 18 18 18 18 18 17
22 20 21 22 23 25 26 25 22 20 19 19 21 23 24 24 24 25 25 25 25 24 24 24 24 23 23 23 22 22 21 21 20 20 19 19 19 18 18 18 18 18 17 17
22 19 20 21 22 23 25 26 25 21 20 21 22 23 24 24 23 23 24 24 24 24 24 24 23 23 23 22 22 21 21 21 20 20 19 19 19 18 18 18 18 17 17 17
20 20 21 22 24 25 25 26 25 24 22 22 22 23 23 23 23 23 24 24 23 23 23 23 23 23 22 21 21 21 20 20 20 19 19 19 18 18 18 17 17 17 17 17
18 19 21 22 24 25 25 25 25 25 24 23 24 23 23 24 24 24 23 23 23 23 23 23 22 22 22 21 21 21 20 20 20 19 19 18 18 18 17 17 17 17 16 16
17 18 19 20 22 24 23 24 25 25 25 24 23 23 23 23 23 23 23 23 23 23 23 22 22 22 22 21 21 21 20 20 19 19 18 18 18 17 17 17 17 16 16 16
17 17 16 18 21 22 22 23 25 25 25 24 24 23 23 23 24 24 25 24 23 23 23 23 22 22 21 21 21 20 20 19 19 18 18 18 18 17 17 17 16 16 16 16
17 17 16 17 19 21 22 24 24 24 23 24 23 23 23 24 23 23 24 24 24 24 24 23 22 22 21 21 20 20 19 19 18 18 18 18 17 17 17 17 16 16 16 15
17 16 16 17 19 20 21 24 25 24 22 23 23 22 22 22 20 21 23 23 23 23 23 22 22 21 21 20 20 19 19 19 18 18 18 17 17 17 16 16 16 16 16 15
18 17 17 17 19 19 21 23 24 22 21 22 23 23 23 21 22 22 23 23 23 22 22 21 21 21 20 20 19 19 19 18 18 18 17 17 17 16 16 16 15 15 15 15
17 16 16 16 18 19 21 22 21 20 22 22 23 23 23 23 22 22 22 22 22 21 21 21 20 20 20 20 19 19 18 18 18 17 17 17 16 16 16 16 15 15 15 14
16 16 16 16 17 18 20 21 22 22 22 22 22 23 23 22 21 21 21 21 21 21 21 20 20 19 19 19 19 19 18 18 17 17 17 16 16 16 15 15 15 14 14 14
16 15 15 16 17 18 20 21 21 22 22 22 22 22 22 21 21 20 20 20 20 20 20 19 19 19 18 18 18 18 18 17 17 17 16 16 15 15 15 14 14 14 14 14
15 15 15 16 16 17 19 20 20 21 21 21 21 22 22 21 20 20 19 19 19 19 19 18 18 18 18 17 17 17 17 17 16 16 15 15 15 15 14 14 14 14 14 13
14 14 15 15 16 16 17 19 20 20 20 20 21 20 21 21 20 19 19 19 18 18 18 18 18 18 17 17 16 16 16 16 16 15 15 15 14 14 14 14 13 13 13 13
Wind_Speed
2 4 3 7 7 7 5 2 3 6 6 6 8 10 14 13 12 12 11 12 13 13 12 12 12 11 11 10 9 8 8 7 5 3 2 2 1 1 1 2 3 5 5 4
5 4 10 7 5 4 4 3 3 2 4 6 7 7 10 12 14 15 14 14 14 11 10 11 11 11 11 11 10 10 9 8 7 4 3 3 2 2 2 1 2 4 4 4
6 8 6 5 5 4 5 5 5 4 1 4 7 2 4 6 6 8 10 11 12 15 15 13 12 11 11 11 11 11 9 8 7 6 3 2 2 1 1 0 1 2 2 3
7 8 5 5 6 6 6 5 6 5 5 3 5 4 5 6 6 8 10 10 11 11 12 12 12 12 12 12 11 10 9 8 7 6 5 5 4 3 3 2 2 1 1 2
6 4 4 5 7 6 7 4 3 5 6 2 1 5 5 4 7 10 11 13 12 12 13 14 14 13 12 12 11 9 9 8 7 6 6 5 4 3 2 1 1 1 0 0
7 6 5 6 6 4 3 3 6 7 6 1 4 5 5 8 13 12 12 12 12 12 12 12 12 10 9 9 9 8 8 7 7 6 6 6 5 4 3 2 2 1 1 0
6 7 5 3 2 3 5 6 4 4 4 5 4 4 8 11 13 14 14 14 13 12 12 11 11 11 11 10 10 9 9 7 7 7 6 5 5 5 4 3 3 2 1 1
4 7 5 4 6 5 4 10 8 5 5 4 3 4 7 7 9 11 11 11 11 12 12 12 12 13 12 12 11 10 9 8 7 7 6 5 4 4 3 3 3 3 2 2
6 7 6 5 5 8 5 5 9 8 3 1 4 4 6 0 6 8 9 10 11 12 13 11 11 12 11 12 11 11 10 8 7 7 6 5 4 3 3 3 2 2 2 1
6 5 7 5 1 2 8 8 7 6 5 2 4 4 5 6 8 8 9 9 9 9 10 10 10 10 10 11 10 9 9 9 8 7 6 5 4 4 3 3 2 2 1 1
6 4 7 2 4 6 3 4 6 6 6 7 3 7 7 11 11 11 10 10 10 10 9 9 9 9 9 9 9 9 9 8 7 7 6 5 4 3 3 3 2 2 1 1
4 5 4 8 7 7 7 7 8 6 4 6 5 7 5 9 9 10 10 10 9 10 10 9 8 9 9 9 9 9 9 8 8 7 7 5 5 4 3 2 2 2 2 2
4 5 1 7 6 2 3 5 7 7 6 5 5 6 2 4 6 8 10 10 10 10 10 9 9 9 9 9 9 9 9 8 8 8 7 6 5 5 4 3 3 3 4 3
5 5 7 8 8 5 4 4 5 7 5 5 7 7 4 5 7 7 8 10 10 9 10 10 9 9 9 9 9 9 9 9 9 8 7 7 6 5 4 4 5 5 5 5
5 4 5 6 5 3 4 6 5 6 9 9 9 9 11 11 12 12 11 11 10 10 10 11 11 10 10 9 9 9 9 9 9 9 8 7 6 5 6 6 6 6 6 7
4 3 1 2 2 3 5 6 7 7 7 7 6 7 7 6 7 10 12 14 13 12 11 11 11 11 12 12 10 10 9 9 9 9 8 7 7 7 7 6 6 6 7 6
2 4 3 2 4 3 6 7 6 6 6 8 9 9 6 6 9 11 11 12 14 14 13 13 12 11 10 11 11 11 10 9 9 9 9 8 8 8 7 7 7 7 6 7
5 3 3 1 2 5 10 6 5 5 5 7 7 8 11 11 9 8 10 12 12 13 13 12 11 10 10 9 10 10 10 9 9 9 9 8 8 8 7 7 7 6 6 6
7 7 4 3 2 5 8 4 3 4 4 4 8 8 7 7 6 2 4 8 11 12 13 12 11 11 11 11 11 11 10 9 9 9 9 9 9 9 8 7 7 6 6 6
5 6 5 4 4 6 8 5 2 6 3 4 8 10 9 8 5 4 4 7 9 10 10 10 11 11 12 11 12 12 11 9 8 9 9 8 8 9 8 7 7 6 6 6
3 3 4 4 4 7 7 6 2 5 7 5 6 9 8 6 7 7 7 8 10 11 11 10 11 11 11 12 12 12 10 9 8 8 9 8 8 8 8 7 6 7 6 6
5 4 4 4 4 8 6 4 2 7 4 3 4 6 6 6 7 8 10 10 12 12 11 11 10 9 9 11 12 12 10 8 9 9 9 9 8 7 8 8 6 6 7 7
3 6 6 7 7 6 4 3 3 2 3 1 3 5 9 9 8 9 9 10 10 11 11 10 11 10 8 8 11 13 10 10 10 9 9 8 8 7 6 7 7 6 5 5
3 1 2 1 4 3 3 2 4 3 3 2 4 7 9 10 10 10 9 10 10 9 10 10 11 11 9 8 9 11 11 10 10 10 9 8 8 7 6 5 5 5 5 5
3 2 1 1 3 4 4 2 3 4 5 5 5 6 8 11 10 9 9 9 10 9 8 9 10 10 9 9 9 10 11 11 11 10 9 8 7 7 6 5 4 4 3 4
2 2 2 4 5 3 4 3 1 3 3 3 6 6 6 9 11 9 9 8 9 10 10 10 9 10 10 10 10 9 10 11 11 10 9 7 7 6 6 6 6 9 6 5
Wind_Direction
341 79 222 227 203 195 201 214 221 227 187 150 153 162 173 176 176 178 178 176 178 180 177 170 169 165 162 161 159 162 165 172 162 147 144 139 166 185 169 184 191 198 201 194
20 261 235 233 243 220 213 228 238 225 164 147 153 169 180 182 185 181 178 179 179 173 172 175 171 167 169 171 170 172 173 173 174 172 163 163 169 185 184 192 200 205 195 191
213 244 240 232 252 248 251 201 203 195 104 89 113 72 199 204 195 188 182 178 178 179 179 182 179 177 174 176 177 178 178 176 178 171 147 132 96 59 69 176 217 225 200 192
245 252 254 237 233 211 252 229 196 171 129 195 146 170 242 211 215 201 191 184 185 183 181 182 182 181 183 185 181 176 175 177 177 168 160 161 169 186 210 193 194 215 222 219
256 243 222 229 234 210 218 215 177 154 131 97 53 133 253 192 212 210 198 193 189 188 185 186 188 188 186 182 179 177 173 177 177 172 173 172 181 195 193 157 166 200 294 292
255 269 225 218 242 218 181 58 36 51 76 105 230 155 234 206 207 201 200 196 190 190 190 189 188 180 177 174 171 168 168 176 175 173 173 174 182 190 170 166 167 184 219 283
304 298 275 234 271 329 89 92 39 10 21 248 247 168 231 220 204 190 188 191 189 186 187 187 179 177 173 171 169 167 166 174 175 172 173 175 178 176 178 181 174 174 185 225
221 280 263 216 182 186 168 137 154 180 204 264 316 218 252 234 191 174 173 177 176 177 183 186 183 179 177 174 170 169 170 174 175 172 174 171 168 167 169 167 167 176 193 211
189 249 273 236 194 156 153 169 166 142 164 148 281 280 318 48 150 157 160 162 169 175 178 181 178 173 172 172 174 173 169 167 168 166 162 160 161 156 156 156 151 166 191 200
169 238 279 269 187 189 163 156 102 120 151 209 277 252 219 203 179 169 167 172 175 171 169 168 170 170 170 170 168 162 160 163 160 160 163 163 156 157 156 145 146 153 182 175
176 195 294 328 185 204 166 130 120 129 151 156 219 263 224 198 187 175 179 176 170 163 164 167 168 163 159 155 154 154 154 152 155 157 153 148 139 136 132 128 142 162 161 144
175 147 249 263 250 193 174 173 145 150 200 160 168 258 261 188 176 164 168 164 155 155 159 157 153 147 146 148 150 151 152 153 155 150 144 142 135 130 121 120 109 102 104 98
153 125 100 330 330 318 181 173 153 138 130 149 164 253 299 155 149 155 159 154 146 146 145 139 138 142 148 149 150 149 150 150 146 140 138 133 128 127 129 120 97 88 91 84
129 127 165 198 222 233 248 238 167 133 154 186 203 223 239 173 157 163 156 148 143 142 146 148 148 147 148 148 147 146 146 144 142 140 138 134 133 131 125 111 99 89 87 85
105 153 185 213 233 252 250 248 221 184 179 181 214 207 211 193 173 170 160 147 144 147 149 155 155 150 144 143 143 143 144 143 143 139 136 137 131 123 116 106 99 95 90 89
67 124 113 297 304 316 295 275 238 215 190 188 189 232 221 196 160 157 160 156 157 160 157 155 156 153 151 152 149 144 145 147 142 139 138 133 126 120 115 110 103 96 90 86
62 95 90 272 319 5 280 247 224 222 208 180 200 220 181 159 165 165 161 158 162 164 162 160 160 157 155 152 148 146 144 140 137 136 133 130 128 123 120 117 105 100 96 90
144 109 124 131 52 226 245 248 199 205 237 195 184 182 172 176 174 168 159 157 159 163 162 160 160 153 147 140 138 136 134 135 137 135 132 131 128 123 118 113 109 103 99 98
156 143 129 130 183 270 285 273 180 174 270 216 163 155 148 135 98 78 163 159 164 165 163 162 159 152 142 140 140 135 133 136 135 137 138 137 133 129 127 124 120 113 107 97
102 121 130 138 168 225 248 275 204 123 263 255 150 147 147 126 137 214 191 148 142 141 145 148 144 139 139 145 142 136 136 138 143 143 139 136 134 135 134 132 125 115 112 109
86 90 142 164 205 255 260 290 67 144 223 239 166 154 152 164 181 175 139 133 132 132 133 135 135 139 143 143 138 136 138 148 146 135 129 127 126 129 129 124 123 123 118 110
169 155 180 162 197 247 298 355 169 216 221 188 164 147 137 134 129 128 125 130 129 130 132 132 128 126 130 137 135 133 139 140 132 130 126 124 123 124 125 119 116 117 120 114
180 182 187 191 214 240 281 247 243 167 138 138 137 134 130 128 132 130 131 131 131 133 134 131 129 124 122 131 137 136 138 133 128 128 124 122 112 104 112 117 118 113 113 119
305 330 147 211 260 279 313 355 22 63 93 98 129 134 132 129 132 128 133 133 135 133 131 130 129 130 131 129 129 136 135 132 133 132 127 122 114 106 98 101 113 122 128 132
274 337 13 292 290 351 347 14 30 52 59 70 87 115 132 131 133 131 135 138 137 132 129 131 135 136 138 132 130 138 138 137 133 130 127 122 117 117 105 89 79 112 131 158
250 196 185 228 237 219 249 265 94 89 73 85 106 112 124 128 133 129 134 137 135 134 132 132 133 135 138 135 135 140 140 143 140 137 135 134 131 126 121 112 83 54 71 98
Height
1498 1505 1511 1508 1506 1508 1511 1515 1519 1514 1506 1512 1518 1521 1521 1522 1524 1525 1527 1528 1531 1533 1536 1539 1541 1543 1545 1546 1548 1549 1550 1551 1553 1553 1554 1555 1556 1556 1556 1557 1557 1557 1557 1557
1506 1509 1500 1499 1500 1503 1508 1516 1517 1510 1505 1510 1519 1521 1519 1519 1519 1520 1522 1525 1528 1531 1535 1538 1540 1541 1543 1545 1546 1548 1549 1550 1552 1553 1554 1555 1555 1556 1556 1556 1556 1556 1556 1556
1508 1502 1495 1498 1502 1505 1508 1513 1513 1514 1509 1511 1519 1529 1525 1521 1521 1522 1523 1523 1526 1528 1531 1534 1537 1539 1541 1543 1545 1546 1548 1549 1551 1552 1553 1554 1555 1555 1555 1555 1555 1556 1556 1556
1502 1495 1495 1499 1501 1502 1512 1499 1502 1507 1519 1529 1524 1547 1532 1524 1522 1521 1522 1524 1525 1527 1529 1532 1534 1537 1539 1541 1543 1545 1547 1548 1550 1551 1552 1552 1553 1553 1554 1554 1554 1554 1554 1554
1501 1493 1494 1498 1496 1495 1500 1493 1498 1504 1518 1530 1528 1541 1537 1525 1526 1521 1519 1520 1522 1525 1527 1529 1531 1534 1537 1540 1542 1544 1546 1547 1548 1549 1550 1551 1551 1552 1553 1553 1553 1553 1553 1552
1495 1489 1490 1490 1488 1488 1491 1498 1505 1515 1527 1543 1531 1538 1541 1526 1517 1514 1514 1516 1519 1522 1525 1527 1530 1533 1536 1538 1540 1542 1544 1545 1547 1548 1549 1550 1550 1551 1551 1551 1551 1551 1551 1551
1499 1491 1486 1485 1490 1490 1495 1518 1541 1544 1554 1549 1529 1531 1531 1510 1504 1506 1509 1512 1516 1520 1523 1525 1528 1530 1533 1536 1538 1540 1541 1543 1545 1546 1547 1548 1549 1549 1549 1549 1549 1549 1549 1549
1511 1510 1489 1484 1489 1496 1499 1513 1541 1554 1556 1547 1529 1531 1517 1500 1499 1502 1505 1509 1513 1517 1519 1522 1524 1527 1529 1532 1535 1537 1539 1541 1543 1544 1545 1546 1547 1547 1547 1547 1547 1547 1547 1547
1510 1508 1485 1480 1480 1486 1498 1509 1512 1532 1539 1546 1538 1523 1509 1498 1500 1502 1506 1509 1512 1514 1516 1519 1522 1524 1527 1529 1532 1534 1536 1539 1540 1542 1543 1544 1544 1545 1545 1545 1546 1546 1546 1545
1495 1503 1489 1481 1479 1482 1488 1497 1518 1533 1548 1553 1540 1531 1524 1508 1503 1502 1504 1507 1509 1512 1515 1518 1520 1522 1525 1527 1530 1533 1535 1537 1538 1540 1541 1542 1542 1543 1543 1544 1544 1544 1544 1544
1489 1502 1497 1489 1490 1493 1492 1499 1512 1528 1533 1549 1551 1536 1502 1500 1498 1499 1501 1504 1507 1510 1513 1515 1518 1520 1523 1525 1528 1531 1533 1535 1537 1538 1539 1540 1540 1541 1542 1542 1542 1542 1542 1542
1487 1501 1508 1496 1483 1479 1485 1493 1507 1526 1532 1535 1540 1530 1491 1492 1493 1495 1498 1501 1504 1507 1510 1513 1516 1519 1521 1524 1527 1529 1532 1534 1535 1537 1538 1538 1539 1540 1541 1541 1541 1541 1541 1541
1485 1501 1514 1510 1500 1487 1486 1487 1496 1509 1523 1534 1537 1523 1491 1492 1493 1494 1496 1499 1503 1506 1509 1512 1515 1518 1520 1523 1525 1528 1530 1532 1534 1536 1537 1537 1538 1539 1540 1540 1541 1541 1541 1541
1479 1496 1508 1515 1507 1495 1491 1487 1489 1504 1521 1525 1521 1512 1499 1494 1495 1496 1497 1499 1501 1505 1508 1511 1513 1516 1519 1522 1524 1527 1529 1531 1533 1535 1536 1537 1538 1539 1540 1540 1541 1541 1541 1541
1479 1493 1492 1492 1487 1485 1486 1486 1486 1494 1502 1511 1507 1503 1495 1491 1492 1493 1495 1498 1502 1505 1507 1509 1512 1515 1518 1521 1524 1526 1528 1531 1532 1534 1535 1536 1538 1539 1540 1540 1541 1541 1541 1541
1482 1491 1491 1491 1484 1483 1485 1482 1482 1485 1488 1493 1494 1496 1486 1487 1488 1491 1494 1496 1500 1503 1505 1508 1511 1513 1516 1519 1522 1525 1528 1530 1532 1533 1534 1536 1538 1539 1540 1540 1541 1541 1541 1542
1486 1492 1500 1502 1490 1487 1494 1482 1480 1481 1479 1484 1492 1488 1483 1486 1487 1488 1492 1495 1497 1500 1503 1506 1509 1512 1515 1517 1520 1523 1526 1529 1531 1533 1534 1536 1537 1539 1540 1541 1541 1542 1542 1543
1485 1494 1503 1504 1499 1508 1491 1472 1471 1474 1474 1474 1476 1477 1479 1481 1483 1485 1488 1491 1495 1498 1501 1504 1508 1511 1514 1517 1520 1523 1526 1528 1531 1532 1534 1536 1537 1539 1540 1541 1542 1542 1543 1543
1475 1489 1501 1508 1508 1499 1482 1470 1469 1475 1478 1470 1472 1474 1477 1480 1484 1487 1489 1490 1492 1494 1497 1501 1505 1509 1512 1515 1519 1522 1524 1527 1529 1532 1534 1536 1538 1539 1540 1541 1542 1543 1544 1544
1475 1482 1497 1504 1506 1506 1485 1467 1464 1469 1481 1470 1469 1472 1476 1478 1488 1489 1488 1489 1491 1494 1497 1500 1504 1507 1510 1514 1518 1521 1523 1526 1529 1531 1534 1536 1538 1539 1540 1541 1542 1543 1544 1545
1486 1490 1496 1501 1501 1492 1472 1465 1464 1483 1482 1469 1468 1469 1473 1476 1479 1482 1484 1487 1490 1493 1497 1500 1503 1506 1509 1513 1516 1519 1522 1526 1528 1531 1533 1535 1537 1539 1540 1542 1543 1543 1545 1545
1488 1493 1496 1498 1501 1495 1468 1466 1470 1472 1465 1466 1466 1467 1470 1473 1476 1479 1482 1486 1488 1492 1496 1499 1502 1505 1509 1512 1516 1519 1522 1525 1528 1531 1533 1535 1537 1539 1540 1541 1543 1544 1545 1546
1482 1483 1485 1486 1486 1473 1469 1467 1465 1464 1465 1465 1466 1467 1468 1471 1474 1478 1481 1485 1488 1492 1495 1499 1502 1505 1509 1512 1515 1518 1521 1525 1528 1531 1532 1535 1536 1538 1540 1541 1542 1543 1545 1546
1478 1476 1478 1479 1474 1470 1468 1466 1465 1464 1464 1465 1466 1466 1468 1470 1474 1477 1480 1484 1488 1491 1494 1498 1501 1504 1508 1511 1515 1518 1520 1524 1528 1530 1531 1533 1535 1538 1540 1541 1542 1543 1544 1545
1480 1477 1477 1476 1473 1470 1468 1467 1467 1466 1466 1466 1467 1468 1468 1469 1473 1476 1479 1483 1487 1491 1494 1498 1501 1504 1508 1511 1513 1517 1519 1523 1526 1528 1530 1532 1535 1537 1539 1541 1542 1543 1544 1545
1477 1478 1479 1478 1473 1473 1470 1468 1467 1467 1467 1467 1467 1468 1470 1470 1472 1476 1480 1483 1487 1491 1494 1498 1501 1504 1508 1511 1513 1517 1519 1522 1525 1527 1529 1532 1534 1536 1538 1540 1542 1543 1545 1545